Daviess Cnty AP, Washington,, IN

4:38 AM EDT on March 29, 2017 (GMT -0400)
Daviess County

Weather History for KDCY - February, 2014

Change the Weather History Date:

Friday, February 21, 2014

  Actual Average (KLWV) Record (KLWV)
Temperature  
Mean Temperature 40 °F -  
Max Temperature 46 °F 43 °F 66 °F (2011)
Min Temperature 34 °F 27 °F 16 °F (2008)
Degree Days  
Heating Degree Days 25    
Moisture  
Dew Point 26 °F    
Average Humidity 60    
Maximum Humidity 80    
Minimum Humidity 38    
Precipitation  
Precipitation 0.07 in - - ()
Sea Level Pressure  
Sea Level Pressure 29.87 in    
Wind  
Wind Speed 14 mph (SW)    
Max Wind Speed 28 mph    
Max Gust Speed 32 mph    
Visibility 10 miles    
Events      
Averages and records for this station are not official NWS values.
T = Trace of Precipitation, MM = Missing Value Source: NWS Daily Summary

Daily Weather History Graph

Daily Weather History Graph

Search for Another Location

Airport or City:

Trip Planner

Search our weather history database for the weather conditions in past years. The results will help you decide how hot, cold, wet, or windy it might be!

Date:

Astronomy

Feb. 21, 2014 Rise Set
Actual Time 7:31 AM EST 6:32 PM EST
Civil Twilight 7:04 AM EST 6:59 PM EST
Nautical Twilight 6:33 AM EST 7:30 PM EST
Astronomical Twilight 6:03 AM EST 8:01 PM EST
Moon 12:21 AM EST (2/21) 11:00 AM EST (2/21)
Length of Visible Light 11h 55m
Length of Day
11h 01m
Waning Gibbous, 61% of the Moon is Illuminated
Feb 21
Waning Gibbous
Feb 22
Last Quarter
Mar 1
New
Mar 8
First Quarter
Mar 16
Full

Hourly Weather History & Observations

Time (EST) Temp. Windchill Dew Point Humidity Pressure Visibility Wind Dir Wind Speed Gust Speed Precip Events Conditions
12:15 AM 39.0 °F 31.8 °F 32.0 °F 76% 29.72 in 10.0 mi West 11.5 mph - N/A   Clear
12:35 AM 37.9 °F 32.1 °F 31.8 °F 79% 29.72 in 10.0 mi WSW 8.1 mph - N/A   Clear
12:55 AM 37.0 °F 31.0 °F 31.5 °F 80% 29.74 in 10.0 mi SW 8.1 mph - N/A   Clear
1:15 AM 37.0 °F 30.4 °F 31.1 °F 79% 29.74 in 10.0 mi SW 9.2 mph - N/A   Clear
1:35 AM 37.2 °F 30.0 °F 30.6 °F 77% 29.75 in 10.0 mi SW 10.4 mph - N/A   Clear
1:55 AM 37.0 °F 29.8 °F 30.7 °F 78% 29.75 in 10.0 mi SSW 10.4 mph - N/A   Clear
2:15 AM 37.0 °F 28.9 °F 30.2 °F 76% 29.76 in 10.0 mi SSW 12.7 mph - N/A   Clear
2:35 AM 36.7 °F 28.9 °F 30.0 °F 77% 29.76 in 10.0 mi SSW 11.5 mph - N/A   Clear
2:55 AM 36.7 °F 27.6 °F 30.0 °F 77% 29.76 in 10.0 mi SSW 15.0 mph - N/A   Clear
3:15 AM 37.0 °F 28.5 °F 30.0 °F 76% 29.75 in 10.0 mi SSW 13.8 mph - N/A   Clear
3:35 AM 37.0 °F 28.5 °F 29.8 °F 75% 29.74 in 10.0 mi SSW 13.8 mph - N/A   Clear
3:55 AM 36.9 °F 28.2 °F 29.8 °F 76% 29.75 in 10.0 mi SSW 13.8 mph - N/A   Clear
4:15 AM 36.7 °F 28.0 °F 29.7 °F 76% 29.75 in 10.0 mi SSW 13.8 mph 20.7 mph N/A   Clear
4:35 AM 36.9 °F 28.2 °F 29.7 °F 75% 29.76 in 10.0 mi SSW 13.8 mph 19.6 mph N/A   Clear
4:55 AM 37.0 °F 28.1 °F 29.3 °F 74% 29.76 in 10.0 mi SSW 15.0 mph 21.9 mph N/A   Clear
5:15 AM 37.0 °F 27.7 °F 29.3 °F 74% 29.76 in 10.0 mi SSW 16.1 mph 20.7 mph N/A   Clear
5:35 AM 36.5 °F 28.2 °F 29.3 °F 75% 29.76 in 10.0 mi SW 12.7 mph 19.6 mph N/A   Clear
5:55 AM 36.3 °F 28.0 °F 29.3 °F 76% 29.77 in 10.0 mi SW 12.7 mph 19.6 mph N/A   Clear
6:15 AM 36.1 °F 26.9 °F 29.3 °F 76% 29.78 in 10.0 mi SW 15.0 mph - N/A   Clear
6:35 AM 37.4 °F 27.2 °F 27.3 °F 67% 29.78 in 10.0 mi WSW 19.6 mph 25.3 mph N/A   Scattered Clouds
6:55 AM 37.4 °F 26.4 °F 27.5 °F 67% 29.79 in 10.0 mi WSW 23.0 mph 28.8 mph N/A   Scattered Clouds
7:15 AM 37.4 °F 27.5 °F 26.6 °F 65% 29.80 in 10.0 mi WSW 18.4 mph 26.5 mph N/A   Clear
7:35 AM 36.7 °F 26.6 °F 26.6 °F 67% 29.81 in 10.0 mi WSW 18.4 mph 25.3 mph N/A   Mostly Cloudy
7:55 AM 36.9 °F 27.5 °F 26.8 °F 67% 29.83 in 10.0 mi WSW 16.1 mph 25.3 mph N/A   Overcast
8:15 AM 36.5 °F 26.7 °F 25.5 °F 64% 29.84 in 10.0 mi West 17.3 mph 21.9 mph N/A   Scattered Clouds
8:35 AM 36.9 °F 28.2 °F 25.5 °F 64% 29.84 in 10.0 mi WSW 13.8 mph - N/A   Clear
8:55 AM 37.0 °F 28.9 °F 26.1 °F 65% 29.85 in 10.0 mi WSW 12.7 mph - N/A   Clear
9:15 AM 37.8 °F 29.4 °F 25.0 °F 60% 29.86 in 10.0 mi WSW 13.8 mph 21.9 mph N/A   Clear
9:35 AM 38.1 °F 29.5 °F 25.7 °F 61% 29.86 in 10.0 mi WSW 15.0 mph 24.2 mph N/A   Clear
9:55 AM 38.3 °F 28.1 °F 25.5 °F 60% 29.87 in 10.0 mi WSW 20.7 mph 31.1 mph N/A   Clear
10:15 AM 38.7 °F 29.1 °F 25.3 °F 59% 29.88 in 10.0 mi WSW 18.4 mph 27.6 mph N/A   Clear
10:35 AM 39.4 °F 30.1 °F 26.6 °F 60% 29.88 in 10.0 mi WSW 18.4 mph - N/A   Clear
10:55 AM 39.4 °F 29.0 °F 24.6 °F 56% 29.89 in 10.0 mi West 23.0 mph 32.2 mph N/A   Clear
11:15 AM 40.1 °F 29.9 °F 25.5 °F 56% 29.91 in 10.0 mi West 23.0 mph 29.9 mph N/A   Clear
11:35 AM 40.3 °F 29.7 °F 23.9 °F 52% 29.92 in 10.0 mi West 25.3 mph 32.2 mph N/A   Clear
11:55 AM 41.2 °F 30.5 °F 24.4 °F 51% 29.92 in 10.0 mi West 27.6 mph 31.1 mph N/A   Clear
12:15 PM 41.4 °F 32.1 °F 23.5 °F 49% 29.93 in 10.0 mi WSW 20.7 mph 27.6 mph N/A   Clear
12:35 PM 41.5 °F 32.1 °F 21.4 °F 45% 29.94 in 10.0 mi West 21.9 mph 32.2 mph N/A   Clear
12:55 PM 42.8 °F 34.5 °F 23.2 °F 46% 29.94 in 10.0 mi West 18.4 mph 27.6 mph N/A   Clear
1:15 PM 43.2 °F 34.5 °F 25.2 °F 49% 29.94 in 10.0 mi WSW 20.7 mph 28.8 mph N/A   Clear
1:35 PM 43.9 °F 35.4 °F 23.9 °F 45% 29.93 in 10.0 mi WSW 20.7 mph 25.3 mph N/A   Clear
1:55 PM 44.1 °F 36.2 °F 22.6 °F 43% 29.93 in 10.0 mi WSW 18.4 mph 24.2 mph N/A   Clear
2:15 PM 44.8 °F 37.1 °F 23.0 °F 42% 29.93 in 10.0 mi WSW 18.4 mph 25.3 mph N/A   Clear
2:35 PM 45.3 °F 38.1 °F 22.6 °F 41% 29.94 in 10.0 mi West 17.3 mph 25.3 mph N/A   Clear
2:55 PM 45.5 °F 38.3 °F 21.4 °F 38% 29.94 in 10.0 mi West 17.3 mph 23.0 mph N/A   Clear
3:15 PM 46.4 °F 40.7 °F 23.0 °F 40% 29.94 in 10.0 mi WSW 12.7 mph - N/A   Clear
3:35 PM 46.6 °F - 23.0 °F 39% 29.94 in 10.0 mi West 13.8 mph 20.7 mph N/A   Clear
3:55 PM 46.6 °F - 22.8 °F 39% 29.94 in 10.0 mi West 15.0 mph 20.7 mph N/A   Clear
4:15 PM 46.6 °F - 24.3 °F 42% 29.94 in 10.0 mi WSW 13.8 mph - N/A   Clear
4:35 PM 46.6 °F - 23.2 °F 40% 29.94 in 10.0 mi WSW 15.0 mph 18.4 mph N/A   Clear
4:55 PM 46.4 °F 41.5 °F 23.9 °F 41% 29.94 in 10.0 mi SW 10.4 mph - N/A   Clear
5:15 PM 45.9 °F 39.7 °F 24.1 °F 42% 29.95 in 10.0 mi SW 13.8 mph - N/A   Clear
5:35 PM 45.5 °F 42.5 °F 26.2 °F 47% 29.95 in 10.0 mi SW 5.8 mph - N/A   Clear
5:55 PM 45.3 °F 39.7 °F 23.2 °F 42% 29.95 in 10.0 mi SSW 11.5 mph 18.4 mph N/A   Clear
6:15 PM 43.7 °F 39.1 °F 24.4 °F 47% 29.95 in 10.0 mi SSW 8.1 mph - N/A   Clear
6:35 PM 40.3 °F 35.5 °F 26.8 °F 59% 29.95 in 10.0 mi South 6.9 mph - N/A   Clear
6:55 PM 37.6 °F 32.3 °F 27.7 °F 67% 29.95 in 10.0 mi South 6.9 mph - N/A   Clear
7:15 PM 35.8 °F 30.9 °F 27.9 °F 73% 29.95 in 10.0 mi SSE 5.8 mph - N/A   Clear
7:35 PM 34.7 °F 29.6 °F 27.9 °F 76% 29.95 in 10.0 mi South 5.8 mph - N/A   Clear
7:55 PM 36.7 °F 29.9 °F 26.2 °F 66% 29.94 in 10.0 mi South 9.2 mph - N/A   Clear
8:15 PM 36.9 °F 29.6 °F 26.1 °F 65% 29.94 in 10.0 mi South 10.4 mph - N/A   Clear
8:35 PM 36.7 °F 29.9 °F 25.7 °F 64% 29.94 in 10.0 mi South 9.2 mph - N/A   Clear
8:55 PM 37.8 °F 30.2 °F 25.2 °F 60% 29.94 in 10.0 mi South 11.5 mph - N/A   Clear
9:15 PM 38.3 °F 30.5 °F 25.3 °F 60% 29.94 in 10.0 mi South 12.7 mph - N/A   Clear
9:35 PM 38.8 °F 31.2 °F 25.5 °F 59% 29.95 in 10.0 mi South 12.7 mph - N/A   Clear
9:55 PM 39.4 °F 31.4 °F 25.7 °F 58% 29.95 in 10.0 mi South 13.8 mph - N/A   Clear
10:15 PM 40.1 °F 32.0 °F 25.9 °F 57% 29.95 in 10.0 mi South 15.0 mph - N/A   Clear
10:35 PM 40.3 °F 32.6 °F 25.9 °F 56% 29.95 in 10.0 mi South 13.8 mph - N/A   Clear
10:55 PM 40.6 °F 32.3 °F 25.7 °F 55% 29.94 in 10.0 mi South 16.1 mph - N/A   Clear
11:15 PM 41.2 °F 33.0 °F 25.7 °F 54% 29.94 in 10.0 mi South 16.1 mph - N/A   Clear
11:35 PM 41.7 °F 32.9 °F 25.7 °F 53% 29.93 in 10.0 mi SSW 19.6 mph 24.2 mph N/A   Scattered Clouds
11:55 PM 42.4 °F 34.1 °F 25.7 °F 52% 29.93 in 10.0 mi SSW 18.4 mph 23.0 mph N/A   Mostly Cloudy